User: anonymous   Login
Location: Bayshore Village Mobile Home Park
(26.6945°N, 81.8642°W)
Time: 21:01:22
(UTC+00:00)
Language:

GPS 2-17 Rocket1 - Orbit

View from above orbital plane
View from above orbital plane
View from above satellite
View from above satellite

Ground track
Ground track

The orbit data is extracted from the following two-line orbital elements,

1 22276U 92089B   21267.18113837  .00000715  00000-0  33575-4 0  9997
2 22276  20.2854 250.6211 0062763 158.6419 265.8900 14.84732121554925
Epoch (UTC): 24 September 2021 04:20:50
Eccentricity: 0.0062763
inclination: 20.2854°
perigee height: 570 km
apogee height: 658 km
right ascension of ascending node: 250.6211°
argument of perigee: 158.6419°
revolutions per day: 14.84732121
mean anomaly at epoch: 265.8900°
orbit number at epoch: 55492

The dashed part of the orbit path shows where the satellite is in the earth's shadow,  

DLR